Previsão horária em Kaarst

Hoje, 19 Junho, Sábado

Tempo Temperatura Precipitação Vento Pressão Humidade
00:00 +22°C° 0 mm 3 m/s 756 mmHg 82%
01:00 +21°C° 0 mm 3 m/s 756 mmHg 84%
02:00 +21°C° 0 mm 3 m/s 756 mmHg 85%
03:00 +20°C° 0 mm 3 m/s 756 mmHg 87%
04:00 +20°C° 0 mm 3 m/s 757 mmHg 85%
05:00 +20°C° 0 mm 4 m/s 757 mmHg 82%
06:00 +21°C° 0 mm 4 m/s 757 mmHg 80%
07:00 +21°C° 0 mm 4 m/s 757 mmHg 76%
08:00 +22°C° 0 mm 4 m/s 757 mmHg 71%
09:00 +22°C° 0 mm 3 m/s 758 mmHg 67%
10:00 +25°C° 0 mm 3 m/s 757 mmHg 62%
11:00 +26°C° 0 mm 3 m/s 757 mmHg 57%
12:00 +27°C° 0 mm 2 m/s 757 mmHg 52%
13:00 +28°C° 0 mm 2 m/s 757 mmHg 51%
14:00 +28°C° 0 mm 2 m/s 756 mmHg 50%
15:00 +29°C° 0 mm 2 m/s 756 mmHg 49%
16:00 +28°C° 0 mm 2 m/s 756 mmHg 52%
17:00 +28°C° 0 mm 2 m/s 755 mmHg 55%
18:00 +27°C° 0 mm 2 m/s 755 mmHg 58%
19:00 +26°C° 0 mm 3 m/s 755 mmHg 63%
20:00 +24°C° 0 mm 3 m/s 754 mmHg 68%
21:00 +22°C° 0 mm 4 m/s 754 mmHg 73%
22:00 +22°C° 0.7 mm 4 m/s 753 mmHg 78%
23:00 +21°C° 0.7 mm 3 m/s 752 mmHg 83%

Amanhã, 20 Junho, Domingo

Tempo Temperatura Precipitação Vento Pressão Humidade
00:00 +21°C° 0.7 mm 3 m/s 752 mmHg 87%
01:00 +20°C° 4.4 mm 3 m/s 751 mmHg 89%
02:00 +20°C° 4.4 mm 3 m/s 751 mmHg 90%
03:00 +19°C° 4.4 mm 3 m/s 751 mmHg 91%
04:00 +20°C° 0 mm 4 m/s 751 mmHg 89%
05:00 +21°C° 0 mm 4 m/s 751 mmHg 88%
06:00 +21°C° 0 mm 4 m/s 751 mmHg 86%
07:00 +22°C° 0 mm 4 m/s 752 mmHg 81%
08:00 +23°C° 0 mm 5 m/s 752 mmHg 75%
09:00 +23°C° 0 mm 5 m/s 752 mmHg 70%
10:00 +25°C° 0 mm 5 m/s 752 mmHg 67%
11:00 +25°C° 0 mm 5 m/s 752 mmHg 65%
12:00 +25°C° 0 mm 5 m/s 752 mmHg 62%
13:00 +25°C° 0 mm 4 m/s 752 mmHg 62%
14:00 +24°C° 0 mm 3 m/s 752 mmHg 62%
15:00 +24°C° 0 mm 3 m/s 753 mmHg 62%
16:00 +24°C° 0 mm 2 m/s 752 mmHg 63%
17:00 +24°C° 0 mm 1 m/s 752 mmHg 63%
18:00 +24°C° 0 mm 1 m/s 752 mmHg 63%
19:00 +23°C° 0 mm 1 m/s 752 mmHg 69%
20:00 +20°C° 0 mm 2 m/s 752 mmHg 74%
21:00 +19°C° 0 mm 2 m/s 753 mmHg 80%
22:00 +18°C° 0 mm 2 m/s 752 mmHg 82%
23:00 +18°C° 0 mm 3 m/s 752 mmHg 85%

Depois de amanhã, 21 Junho, Segunda-feira

Tempo Temperatura Precipitação Vento Pressão Humidade
00:00 +17°C° 0 mm 3 m/s 752 mmHg 87%
01:00 +17°C° 0.3 mm 3 m/s 752 mmHg 89%
02:00 +16°C° 0.3 mm 3 m/s 752 mmHg 91%
03:00 +16°C° 0.3 mm 3 m/s 752 mmHg 92%
04:00 +16°C° 0.4 mm 3 m/s 751 mmHg 93%
05:00 +16°C° 0.4 mm 3 m/s 751 mmHg 94%
06:00 +16°C° 0.4 mm 3 m/s 751 mmHg 95%
07:00 +17°C° 0.4 mm 3 m/s 751 mmHg 95%
08:00 +17°C° 0.4 mm 3 m/s 751 mmHg 95%
09:00 +18°C° 0.4 mm 3 m/s 751 mmHg 95%
10:00 +18°C° 0.2 mm 3 m/s 752 mmHg 91%
11:00 +18°C° 0.2 mm 4 m/s 752 mmHg 86%
12:00 +19°C° 0.2 mm 5 m/s 753 mmHg 82%
13:00 +19°C° 0 mm 4 m/s 753 mmHg 79%
14:00 +19°C° 0 mm 4 m/s 753 mmHg 76%
15:00 +20°C° 0 mm 3 m/s 754 mmHg 73%
16:00 +19°C° 0 mm 3 m/s 754 mmHg 74%
17:00 +19°C° 0 mm 3 m/s 754 mmHg 75%
18:00 +19°C° 0 mm 3 m/s 754 mmHg 75%
19:00 +17°C° 0 mm 3 m/s 754 mmHg 81%
20:00 +16°C° 0 mm 3 m/s 755 mmHg 86%
21:00 +14°C° 0 mm 3 m/s 755 mmHg 91%
22:00 +13°C° 0 mm 3 m/s 755 mmHg 92%
23:00 +13°C° 0 mm 3 m/s 755 mmHg 93%

22 Junho, Terça-feira

Tempo Temperatura Precipitação Vento Pressão Humidade
00:00 +13°C° 0 mm 3 m/s 755 mmHg 93%
01:00 +13°C° 0 mm 3 m/s 755 mmHg 93%
02:00 +13°C° 0 mm 3 m/s 755 mmHg 93%
03:00 +13°C° 0 mm 3 m/s 755 mmHg 93%
04:00 +13°C° 0 mm 3 m/s 755 mmHg 89%
05:00 +14°C° 0 mm 3 m/s 756 mmHg 86%
06:00 +16°C° 0 mm 3 m/s 756 mmHg 82%
07:00 +18°C° 0.1 mm 3 m/s 756 mmHg 77%
08:00 +19°C° 0.1 mm 3 m/s 756 mmHg 72%
09:00 +20°C° 0.1 mm 3 m/s 756 mmHg 67%
10:00 +22°C° 0.2 mm 3 m/s 756 mmHg 64%
11:00 +24°C° 0.2 mm 3 m/s 756 mmHg 61%
12:00 +25°C° 0.2 mm 3 m/s 756 mmHg 59%
13:00 +25°C° 0.2 mm 3 m/s 756 mmHg 60%
14:00 +25°C° 0.2 mm 2 m/s 756 mmHg 62%
15:00 +25°C° 0.2 mm 2 m/s 756 mmHg 63%
16:00 +24°C° 0.5 mm 3 m/s 756 mmHg 69%
17:00 +22°C° 0.5 mm 3 m/s 756 mmHg 76%
18:00 +22°C° 0.5 mm 3 m/s 757 mmHg 82%
19:00 +20°C° 0.4 mm 3 m/s 757 mmHg 86%
20:00 +19°C° 0.4 mm 3 m/s 757 mmHg 90%
21:00 +18°C° 0.4 mm 3 m/s 758 mmHg 94%
22:00 +17°C° 0.3 mm 4 m/s 758 mmHg 95%
23:00 +15°C° 0.3 mm 4 m/s 758 mmHg 95%

23 Junho, Quarta-feira

Tempo Temperatura Precipitação Vento Pressão Humidade
00:00 +14°C° 0.3 mm 4 m/s 759 mmHg 95%
01:00 +14°C° 0.2 mm 3 m/s 759 mmHg 94%
02:00 +14°C° 0.2 mm 3 m/s 759 mmHg 94%
03:00 +13°C° 0.2 mm 3 m/s 759 mmHg 93%
04:00 +14°C° 0 mm 3 m/s 759 mmHg 92%
05:00 +14°C° 0 mm 3 m/s 759 mmHg 90%
06:00 +14°C° 0 mm 3 m/s 759 mmHg 88%
07:00 +16°C° 0.2 mm 3 m/s 759 mmHg 85%
08:00 +18°C° 0.2 mm 3 m/s 759 mmHg 81%
09:00 +19°C° 0.2 mm 3 m/s 759 mmHg 78%
10:00 +19°C° 0.4 mm 3 m/s 759 mmHg 78%
11:00 +19°C° 0.4 mm 3 m/s 759 mmHg 79%
12:00 +20°C° 0.4 mm 3 m/s 759 mmHg 80%
13:00 +20°C° 0.2 mm 3 m/s 759 mmHg 78%
14:00 +21°C° 0.2 mm 4 m/s 759 mmHg 77%
15:00 +21°C° 0.2 mm 4 m/s 758 mmHg 75%
16:00 +21°C° 0.3 mm 4 m/s 758 mmHg 78%
17:00 +20°C° 0.3 mm 3 m/s 759 mmHg 81%
18:00 +20°C° 0.3 mm 3 m/s 759 mmHg 83%
19:00 +19°C° 0.4 mm 3 m/s 759 mmHg 86%
20:00 +18°C° 0.4 mm 3 m/s 759 mmHg 88%
21:00 +18°C° 0.4 mm 3 m/s 759 mmHg 91%
22:00 +18°C° 2.1 mm 3 m/s 759 mmHg 93%
23:00 +17°C° 2.1 mm 2 m/s 759 mmHg 94%

24 Junho, Quinta-feira

Tempo Temperatura Precipitação Vento Pressão Humidade
00:00 +17°C° 2.1 mm 2 m/s 759 mmHg 96%
01:00 +17°C° 1.5 mm 2 m/s 759 mmHg 96%
02:00 +17°C° 1.5 mm 2 m/s 759 mmHg 96%
03:00 +16°C° 1.5 mm 2 m/s 759 mmHg 97%
04:00 +17°C° 0.2 mm 2 m/s 759 mmHg 95%
05:00 +17°C° 0.2 mm 2 m/s 759 mmHg 94%
06:00 +19°C° 0.2 mm 1 m/s 759 mmHg 93%
07:00 +18°C° 0.6 mm 2 m/s 759 mmHg 89%
08:00 +19°C° 0.6 mm 2 m/s 759 mmHg 86%
09:00 +20°C° 0.6 mm 2 m/s 759 mmHg 83%
10:00 +20°C° 0.7 mm 3 m/s 759 mmHg 82%
11:00 +20°C° 0.7 mm 3 m/s 759 mmHg 80%
12:00 +20°C° 0.7 mm 3 m/s 759 mmHg 79%
13:00 +20°C° 0.2 mm 3 m/s 759 mmHg 80%
14:00 +19°C° 0.2 mm 3 m/s 759 mmHg 81%
15:00 +19°C° 0.2 mm 2 m/s 759 mmHg 82%
16:00 +19°C° 0.1 mm 3 m/s 759 mmHg 83%
17:00 +18°C° 0.1 mm 3 m/s 759 mmHg 85%
18:00 +18°C° 0.1 mm 3 m/s 759 mmHg 87%
19:00 +17°C° 0.1 mm 3 m/s 759 mmHg 89%
20:00 +17°C° 0.1 mm 3 m/s 759 mmHg 92%
21:00 +16°C° 0.1 mm 3 m/s 760 mmHg 94%
22:00 +16°C° 0.3 mm 3 m/s 760 mmHg 94%
23:00 +14°C° 0.3 mm 3 m/s 760 mmHg 95%
Mostrar mais

Necessitamos do seu Consentimento

A Meteoprog e os seus Fornecedores de Serviços podem armazenar e aceder a dados pessoais como cookies, identificadores do dispositivo ou outras tecnologias semelhantes existentes no seu dispositivo e processar estes dados para personalizar conteúdos e anúncios, assim como funcionalidades nas redes sociais e análise de tráfego.

  • Armazenar e/ou aceder a informações no seu dispositivo

    Os cookies, identificadores do dispositivo ou outras informações podem ser armazenados ou acedidos no seu dispositivo, para os fins acima indicados.

  • Anúncios e conteúdos personalizados, medição de anúncios e conteúdos, dados sobre o público-alvo e desenvolvimento de produtos

    Os anúncios e os conteúdos podem ser personalizados com base num perfil. Podem ser adicionados dados adicionais para uma maior personalização dos anúncios e dos conteúdos. A eficácia dos anúncios e dos conteúdos pode ser medida. Podem ser obtidas informações sobre o público que visualizou os anúncios e os conteúdos. Estes dados podem ser usados para desenvolver ou melhorar sistemas, softwares ou a experiência do utilizador.

Ao clicar em "Eu concordo”, permitirá o uso de cookies, identificadores do dispositivo e web beacons mencionados ou outras tecnologias semelhantes. As configurações do navegador do seu dispositivo podem ser alteradas.

Para certos fins, podem ser invocados interesses legítimos ao invés de consentimento. Pode ler mais informação sobre este assunto na nossa Política de Privacidade e Cookies.